{"data":{"norad_id":53183,"intl_designator":"2022-083BD","name":"STARLINK-4268","alt_names":[],"object_type":"PAYLOAD","status":"ACTIVE","operator":null,"country":"US","launch_date":"2022-07-17","launch_site_code":"AFETR","launch_vehicle":null,"mission":null,"orbit_class":"UNKNOWN","rcs_meters":null,"size_class":null,"mass_kg":null,"dimensions":null,"purposes":["comms"],"wikipedia_slug":null,"has_3d_model":false,"image_url":null,"decayed_at":null,"tle_current":{"epoch":"2026-09-20T04:59:22.081344Z","epoch_age_seconds":97459,"freshness":"FRESH","line1":"1 53183U 22083BD  26263.20789446  .00000613  00000+0  28477-4 0  9995","line2":"2 53183  53.1598 323.2125 0001188  87.2591 272.8548 15.35400782231378","mean_motion":15.35400782,"eccentricity":0.0001188,"inclination_deg":53.1598,"raan_deg":323.2125,"arg_perigee_deg":87.2591,"mean_anomaly_deg":272.8548,"bstar":2.8477e-5,"rev_number":23137,"period_min":93.786587637676,"perigee_km":458.91798235798,"apogee_km":460.54265963344,"semimajor_km":6837.8673209957,"source":"CELESTRAK","updated_at":"2026-09-20T09:00:40.188185Z"}}}